sat.trackr.live / text

‹ back to catalog

STARLINK-33978

NORAD 63832 · 2025-092AE

PAYLOAD ACTIVE UNKNOWN

§ Identity

Operator
Country
US
Launch date
2025-05-04
Launch site
AFETR
Launch vehicle
Mass (kg)
RCS (m²)

Purposes: comms

External: N2YO · Heavens-Above · Gunter

§ Orbital elements

Epoch: 2026-05-25T04:09:53.186400Z

Period
94.27 min
Inclination
43.0004°
Eccentricity
0.0000880
Mean motion
15.27588790 rev/d
Perigee alt
482.4 km
Apogee alt
483.6 km
Semi-major
6,861.2 km
B*
8.2089e-4
RAAN
100.4514°
Arg perigee
262.4658°
Mean anomaly
97.6094°
Rev number
6,036

§ Raw data

STARLINK-339781 63832U 25092AE  26145.17353225  .00022401  00000+0  82089-3 0  99942 63832  43.0004 100.4514 0000880 262.4658  97.6094 15.27588790 60361

JSON: /api/v1/satellites/63832 · /tle

For live sub-satellite position, see the globe view (requires WebGL).

§ Visibility from observer

Set your observer location to see the next 7 days of passes ≥ 10°. The values pass through the URL so the page stays shareable.

No JS? Fill the form by hand. The geolocation button needs JavaScript.